Tracking 22879 objects as of 22-Apr-2021
HD Live streaming from Space Station
objects crossing your sky now

STARLINK-2015

Track STARLINK-2015 now!
10-day predictions
STARLINK-2015 is classified as:


NORAD ID: 47638
Int'l Code: 2021-012U
Perigee: 355.1 km
Apogee: 358.8 km
Inclination: 53.0 °
Period: 91.5 minutes
Semi major axis: 6727 km
RCS: Unknown
Launch date: February 16, 2021
Source: United States (US)
Launch site: AIR FORCE EASTERN TEST RANGE (AFETR)
aabbcc
Your satellite tracking list
Your tracking list is empty




NASA's NSSDC Master Catalog

Two Line Element Set (TLE):
1 47638U 21012U   21111.58334491  .00055707  00000-0  39884-3 0  9996
2 47638  53.0450 140.9038 0002729  18.8052 112.5010 15.73185344  1772
Source of the keplerian elements: AFSPC